Weather History for Adrian, MI

Change the Weather History Date:

Wednesday, January 29, 2014

  Actual Average Record
Temperature  
Mean Temperature 5 °F -  
Max Temperature 15 °F 33 °F 57 °F (2013)
Min Temperature -5 °F 16 °F -15 °F (1963)
Degree Days  
Heating Degree Days 60    
Moisture  
Dew Point -5 °F    
Average Humidity 65    
Maximum Humidity 76    
Minimum Humidity 47    
Precipitation  
Precipitation 0.00 in - - ()
Sea Level Pressure  
Sea Level Pressure 30.23 in    
Wind  
Wind Speed 9 mph (WSW)    
Max Wind Speed 14 mph    
Max Gust Speed 23 mph    
Visibility 10 miles    
Events      
Averages and records for this station are not official NWS values.
T = Trace of Precipitation, MM = Missing Value Source: NWS Daily Summary

Daily Weather History Graph

Daily Weather History Graph

Search for Another Location

Airport:

Trip Planner

Search our weather history database for the weather conditions in past years. The results will help you decide how hot, cold, wet, or windy it might be!

Date:

Astronomy

Jan. 29, 2014 Rise Set
Actual Time 7:51 AM EST 5:47 PM EST
Civil Twilight 7:21 AM EST 6:17 PM EST
Nautical Twilight 6:48 AM EST 6:51 PM EST
Astronomical Twilight 6:15 AM EST 7:23 PM EST
Moon 6:27 AM EST (1/29) 4:46 PM EST (1/29)
Length of Visible Light 10h 55m
Length of Day
9h 56m
Waning Crescent, 2% of the Moon is Illuminated
Jan 29
Waning Crescent
Jan 30
New
Feb 6
First Quarter
Feb 14
Full
Feb 22
Last Quarter

Hourly Weather History & Observations

Time (EST) Temp. Windchill Dew Point Humidity Pressure Visibility Wind Dir Wind Speed Gust Speed Precip Events Conditions
12:53 AM -4.0 °F -19.0 °F -11.0 °F 72% 30.26 in 10.0 mi WSW 8.1 mph - N/A   Clear
1:53 AM -2.9 °F -18.8 °F -9.9 °F 72% 30.24 in 10.0 mi West 9.2 mph - N/A   Clear
2:53 AM -2.9 °F -18.8 °F -9.9 °F 72% 30.23 in 10.0 mi West 9.2 mph - N/A   Clear
3:53 AM -2.0 °F -17.7 °F -9.0 °F 72% 30.22 in 10.0 mi West 9.2 mph - N/A   Clear
4:53 AM -0.0 °F -18.0 °F -9.0 °F 66% 30.20 in 10.0 mi West 12.7 mph - N/A   Clear
5:53 AM -0.9 °F -17.4 °F -9.0 °F 69% 30.20 in 10.0 mi West 10.4 mph 17.3 mph N/A   Clear
6:53 AM -2.0 °F -18.7 °F -9.0 °F 72% 30.20 in 10.0 mi SW 10.4 mph - N/A   Clear
7:53 AM -5.1 °F -17.6 °F -11.0 °F 76% 30.22 in 10.0 mi WSW 5.8 mph - N/A   Clear
8:53 AM -2.0 °F -17.7 °F -9.0 °F 72% 30.21 in 10.0 mi WSW 9.2 mph - N/A   Clear
9:53 AM 1.0 °F -14.0 °F -7.1 °F 69% 30.22 in 10.0 mi WSW 9.2 mph - N/A   Clear
10:53 AM 5.0 °F -12.3 °F -4.0 °F 66% 30.23 in 10.0 mi WSW 13.8 mph 20.7 mph N/A   Clear
11:53 AM 8.1 °F -7.0 °F -2.9 °F 61% 30.23 in 10.0 mi West 11.5 mph - N/A   Clear
12:53 PM 10.9 °F -3.4 °F -2.0 °F 56% 30.21 in 10.0 mi West 11.5 mph - N/A   Clear
1:53 PM 12.9 °F -1.6 °F -2.9 °F 49% 30.20 in 10.0 mi West 12.7 mph 23.0 mph N/A   Clear
2:53 PM 15.1 °F 1.1 °F -2.0 °F 47% 30.20 in 10.0 mi West 12.7 mph 18.4 mph N/A   Clear
3:53 PM 15.1 °F 1.8 °F -0.9 °F 49% 30.20 in 10.0 mi West 11.5 mph 20.7 mph N/A   Clear
4:53 PM 14.0 °F -0.2 °F -0.9 °F 52% 30.23 in 10.0 mi West 12.7 mph 20.7 mph N/A   Clear
5:53 PM 12.9 °F 0.7 °F -2.0 °F 51% 30.24 in 10.0 mi West 9.2 mph - N/A   Clear
6:53 PM 9.0 °F 0.6 °F -2.0 °F 61% 30.26 in 10.0 mi WSW 4.6 mph - N/A   Clear
7:53 PM 7.0 °F -3.3 °F -2.9 °F 64% 30.26 in 10.0 mi SW 5.8 mph - N/A   Clear
8:53 PM 7.0 °F 0.1 °F -2.9 °F 64% 30.26 in 10.0 mi WSW 3.5 mph - N/A   Clear
9:53 PM 3.0 °F -4.4 °F -4.0 °F 73% 30.25 in 10.0 mi SSW 3.5 mph - N/A   Clear
10:53 PM 5.0 °F -6.9 °F -2.0 °F 73% 30.24 in 10.0 mi SSW 6.9 mph - N/A   Clear
11:53 PM 5.0 °F -8.1 °F -2.0 °F 73% 30.22 in 10.0 mi SSW 8.1 mph - N/A   Clear